Location: Cosy Dell
(34.2789°N, 117.4537°W)
Time: 23:08:00
(UTC+00:00)

Cosmos 1536 - Pass Details

Date: 14 July 2020
Orbit: 539 x 560 km, 82.5° (Epoch: 12 August)

Event Time Altitude Azimuth Distance (km) Brightness Sun altitude
Exits shadow 10:01:25 50° 21° (NNE) 714 3.6 -26.7°
Drops below altitude 10° 10:04:30 10° 10° (N) 1,845 6.3 -26.3°
Sets 10:06:40 0° 9° (N) 2,741 7.4 -26.1°
